Dobrodošli na spletni strani vremenske postaje Senovo. Vse informacije so informativnega značaja, saj vremenska postaja ni del državne mreže meteoroloških postaj. OBVESTILO: Letni količini padavin navedeni na spletni strani je potrebno prišteti 98,1 mm, zaradi izgube podatkov.


Posebna pozornost v zvezi z vremenskimi dogajanji ni potrebna.    Posebna pozornost v zvezi z vremenskimi dogajanji ni potrebna.

Pogled proti Armezu več informacij Pogled proti Armezu


Lisca več informacij Lisca


Radar strel več informacij blitzortung!


Radar padavin več informacij rain snow radar


Obiščite še:

Template documentation
and downloads

And another site



Weather Underground, zgodovina - Tekstovno

Dnevni povzetek za Avgust 4, 2017 Enote:  Angleško    Metrično   Obe
« Predhodni Dan
Naslednji Dan »
Dnevni Tedenski Mesečni Letni Po meri
  Višja: Nižja: Povprečje:
Temperatura: 99.3 °F 65.8 °F 80.8 °F
Točka rosišča: 73.6 °F 64.2 °F 68.9 °F
Vlažnost: 96 % 36 % 71 %
Hitrost vetra: 6.1 mph 0 mph 0.8 mph
Sunki vetra: 17.4 mph - -
Veter:- - South
Zračni tlak: 30 in 29.8 in -
Padavine: 0 in    
Historical Graphs
 
 
Tabelarni podarki za Avgust 4, 2017
Čas Temperatura Točka rosišča Zračni tlak Veter Hitrost vetra Sunki vetra Vlažnost Intenziteta padavin (urna)
00:02 70.7 °F 66.9 °F 30 in Calm     88 % 0 in
00:07 70.5 °F 66.7 °F 30 in Calm     88 % 0 in
00:12 70.5 °F 66.7 °F 30 in Calm     88 % 0 in
00:17 70.3 °F 66.9 °F 30 in Calm     89 % 0 in
00:22 70.3 °F 66.9 °F 30 in Calm     89 % 0 in
00:27 70.2 °F 66.7 °F 30 in Calm     89 % 0 in
00:32 70.2 °F 66.7 °F 30 in Calm     89 % 0 in
00:37 70 °F 66.9 °F 30 in Calm     90 % 0 in
00:38 70 °F 66.9 °F 30 in Calm     90 % 0 in
00:43 70 °F 66.9 °F 30 in Calm     90 % 0 in
00:48 70 °F 66.6 °F 30 in Calm     89 % 0 in
00:53 69.8 °F 66.7 °F 30 in Calm     90 % 0 in
00:58 69.8 °F 66.7 °F 30 in Calm     90 % 0 in
01:03 69.6 °F 66.6 °F 30 in Calm     90 % 0 in
01:06 69.6 °F 66.6 °F 30 in Calm     90 % 0 in
01:11 69.4 °F 66.4 °F 30 in Calm     90 % 0 in
01:16 69.4 °F 66.4 °F 30 in Calm     90 % 0 in
01:21 69.3 °F 66.2 °F 30 in Calm     90 % 0 in
01:26 69.3 °F 66.6 °F 30 in Calm     91 % 0 in
01:31 69.1 °F 66.4 °F 30 in Calm     91 % 0 in
01:36 69.1 °F 66.4 °F 30 in Calm     91 % 0 in
01:41 68.9 °F 66.2 °F 30 in Calm     91 % 0 in
01:46 68.9 °F 66.2 °F 30 in Calm     91 % 0 in
01:51 68.7 °F 66 °F 30 in Calm     91 % 0 in
01:56 68.7 °F 66 °F 30 in Calm     91 % 0 in
02:01 68.7 °F 66 °F 30 in Calm     91 % 0 in
02:06 68.5 °F 65.8 °F 30 in Calm     91 % 0 in
02:11 68.5 °F 65.8 °F 30 in Calm     91 % 0 in
02:16 68.4 °F 65.7 °F 30 in Calm     91 % 0 in
02:21 68.4 °F 65.7 °F 30 in Calm     91 % 0 in
02:26 68.4 °F 65.8 °F 30 in Calm     92 % 0 in
02:31 68.2 °F 65.5 °F 30 in Calm     91 % 0 in
02:36 68.2 °F 65.8 °F 30 in Calm     92 % 0 in
02:41 68 °F 65.7 °F 30 in Calm     92 % 0 in
02:46 68 °F 65.7 °F 30 in Calm     92 % 0 in
02:47 68 °F 65.7 °F 30 in Calm     92 % 0 in
02:52 67.8 °F 65.5 °F 30 in Calm     92 % 0 in
02:57 67.8 °F 65.5 °F 30 in Calm     92 % 0 in
03:02 67.6 °F 65.1 °F 30 in Calm     92 % 0 in
03:07 67.6 °F 65.1 °F 30 in Calm     92 % 0 in
03:12 67.6 °F 65.1 °F 30 in Calm     92 % 0 in
03:17 67.5 °F 65.5 °F 30 in Calm     93 % 0 in
03:22 67.5 °F 65.5 °F 29.9 in Calm     93 % 0 in
03:27 67.3 °F 65.1 °F 29.9 in Calm     93 % 0 in
03:32 67.3 °F 65.1 °F 29.9 in Calm     93 % 0 in
03:37 67.3 °F 65.1 °F 30 in Calm     93 % 0 in
03:42 67.3 °F 65.1 °F 30 in Calm     93 % 0 in
03:47 67.1 °F 64.9 °F 30 in Calm     93 % 0 in
03:52 67.1 °F 64.9 °F 29.9 in Calm     93 % 0 in
03:57 66.9 °F 64.8 °F 29.9 in Calm     93 % 0 in
04:03 66.9 °F 64.8 °F 29.9 in Calm     93 % 0 in
04:08 66.9 °F 64.8 °F 29.9 in Calm     93 % 0 in
04:12 66.9 °F 64.8 °F 29.9 in Calm     93 % 0 in
04:18 66.9 °F 64.8 °F 29.9 in Calm     93 % 0 in
04:23 66.7 °F 64.8 °F 29.9 in Calm     93 % 0 in
04:27 66.7 °F 64.9 °F 29.9 in Calm     94 % 0 in
04:32 66.7 °F 64.9 °F 29.9 in Calm     94 % 0 in
04:38 66.7 °F 64.9 °F 30 in Calm     94 % 0 in
04:43 66.6 °F 64.8 °F 30 in Calm     94 % 0 in
04:48 66.6 °F 64.8 °F 30 in Calm     94 % 0 in
04:53 66.6 °F 64.8 °F 29.9 in Calm     94 % 0 in
04:58 66.6 °F 64.8 °F 29.9 in Calm     94 % 0 in
05:03 66.4 °F 64.6 °F 29.9 in Calm     94 % 0 in
05:08 66.4 °F 64.6 °F 29.9 in Calm     94 % 0 in
05:18 66.2 °F 64.4 °F 29.9 in Calm     94 % 0 in
05:19 66.2 °F 64.4 °F 29.9 in Calm     94 % 0 in
05:23 66.2 °F 64.4 °F 29.9 in Calm     94 % 0 in
05:25 66.2 °F 64.4 °F 29.9 in Calm     94 % 0 in
05:31 66.2 °F 64.4 °F 29.9 in Calm     94 % 0 in
05:36 66 °F 64.2 °F 30 in Calm     94 % 0 in
05:41 66 °F 64.6 °F 30 in Calm     95 % 0 in
05:46 66 °F 64.6 °F 30 in Calm     95 % 0 in
05:51 66 °F 64.2 °F 29.9 in Calm     94 % 0 in
05:56 65.8 °F 64.4 °F 29.9 in Calm     95 % 0 in
06:01 65.8 °F 64.4 °F 29.9 in Calm     95 % 0 in
06:06 65.8 °F 64.4 °F 29.9 in Calm     95 % 0 in
06:11 65.8 °F 64.4 °F 29.9 in Calm     95 % 0 in
06:16 65.8 °F 64.4 °F 29.9 in Calm     95 % 0 in
06:21 66 °F 64.6 °F 29.9 in Calm     95 % 0 in
06:26 66 °F 64.6 °F 29.9 in Calm     95 % 0 in
06:31 66 °F 64.6 °F 29.9 in Calm     95 % 0 in
06:36 66.2 °F 64.8 °F 29.9 in Calm     95 % 0 in
06:41 66.2 °F 64.8 °F 29.9 in Calm     95 % 0 in
06:46 66.4 °F 64.9 °F 29.9 in Calm     95 % 0 in
06:51 66.6 °F 65.1 °F 29.9 in Calm     95 % 0 in
06:56 66.7 °F 65.3 °F 29.9 in Calm     95 % 0 in
07:01 66.9 °F 65.5 °F 29.9 in Calm     95 % 0 in
07:06 67.1 °F 65.7 °F 29.9 in Calm     95 % 0 in
07:11 67.3 °F 65.8 °F 29.9 in Calm     95 % 0 in
07:16 67.5 °F 66 °F 29.9 in Calm     95 % 0 in
07:21 67.8 °F 66.6 °F 29.9 in Calm     96 % 0 in
07:26 68 °F 66.6 °F 29.9 in Calm     95 % 0 in
07:31 68.4 °F 66.9 °F 29.9 in Calm     95 % 0 in
07:36 68.5 °F 67.1 °F 30 in Calm     95 % 0 in
07:41 68.7 °F 67.3 °F 30 in Calm     95 % 0 in
07:46 69.3 °F 67.8 °F 30 in Calm     95 % 0 in
07:51 69.6 °F 68.2 °F 30 in Calm     95 % 0 in
07:56 70.2 °F 68.7 °F 30 in Calm     95 % 0 in
08:01 70.3 °F 68.5 °F 30 in Calm     94 % 0 in
08:06 70.9 °F 69.1 °F 30 in Calm     94 % 0 in
08:07 70.9 °F 69.1 °F 30 in Calm     94 % 0 in
08:12 71.2 °F 69.4 °F 30 in Calm     94 % 0 in
08:17 71.6 °F 69.4 °F 30 in Calm     93 % 0 in
08:22 72.1 °F 69.6 °F 30 in Calm   1.3 mph 92 % 0 in
08:27 72.7 °F 70.2 °F 30 in Calm   1.3 mph 92 % 0 in
08:32 73.4 °F 70.5 °F 30 in ESE 0.2 mph 1.6 mph 91 % 0 in
08:37 73.9 °F 71.1 °F 30 in ESE 0.3 mph 3.1 mph 91 % 0 in
08:42 74.7 °F 71.4 °F 30 in SE 0.5 mph 3.1 mph 90 % 0 in
08:47 75.6 °F 72.1 °F 30 in SSE 1.2 mph 2.7 mph 89 % 0 in
08:52 76.3 °F 72.9 °F 30 in SE 0.9 mph 3.4 mph 89 % 0 in
08:57 77.2 °F 72.7 °F 30 in ESE 0.7 mph 3.4 mph 86 % 0 in
09:02 77.9 °F 73 °F 30 in East 1.1 mph 2.7 mph 85 % 0 in
09:07 78.3 °F 73 °F 30 in East 0.7 mph 2.7 mph 84 % 0 in
09:12 79 °F 73 °F 30 in East 0.1 mph 1.6 mph 82 % 0 in
09:17 79.5 °F 73.2 °F 30 in Calm     81 % 0 in
09:22 80.1 °F 73.2 °F 30 in Calm   1.6 mph 80 % 0 in
09:27 80.6 °F 73 °F 30 in East 0.2 mph 2.7 mph 78 % 0 in
09:32 81.3 °F 73.4 °F 30 in East 0.5 mph 2.7 mph 77 % 0 in
09:37 81.7 °F 73.4 °F 30 in ESE 0.6 mph 2.2 mph 76 % 0 in
09:42 82.4 °F 73.2 °F 30 in ESE 0.9 mph 2.9 mph 74 % 0 in
09:47 82.8 °F 72.9 °F 30 in East 1.1 mph 3.8 mph 72 % 0 in
09:53 83.3 °F 72.9 °F 29.9 in ESE 1.4 mph 4 mph 71 % 0 in
09:57 83.8 °F 73.4 °F 29.9 in ESE 2.1 mph 4 mph 71 % 0 in
10:02 84.4 °F 73 °F 29.9 in ESE 2.1 mph 3.8 mph 69 % 0 in
10:08 84.9 °F 72.7 °F 29.9 in ESE 2.3 mph 4.3 mph 67 % 0 in
10:13 85.1 °F 72.9 °F 29.9 in SSE 2.5 mph 4.3 mph 67 % 0 in
10:18 85.5 °F 72.9 °F 29.9 in SSE 2.5 mph 4.3 mph 66 % 0 in
10:23 85.6 °F 73 °F 29.9 in South 2.1 mph 3.8 mph 66 % 0 in
10:28 85.8 °F 73 °F 29.9 in SW 1.8 mph 3.1 mph 66 % 0 in
10:33 86 °F 72.9 °F 29.9 in SSW 1.6 mph 3.1 mph 65 % 0 in
10:38 86.5 °F 73.4 °F 29.9 in South 0.9 mph 2.5 mph 65 % 0 in
10:43 87.1 °F 73.4 °F 29.9 in South 0.6 mph 2.5 mph 64 % 0 in
10:48 87.3 °F 73.6 °F 29.9 in SSW 0.8 mph 3.6 mph 64 % 0 in
10:53 87.4 °F 73.2 °F 29.9 in SSW 1.1 mph 3.6 mph 63 % 0 in
10:58 87.8 °F 73.2 °F 29.9 in SSW 1.4 mph 2.9 mph 62 % 0 in
11:03 88.2 °F 73 °F 29.9 in SSE 1.1 mph 2.9 mph 61 % 0 in
11:08 88.7 °F 72 °F 29.9 in ESE 1.3 mph 2.9 mph 58 % 0 in
11:13 89.1 °F 72.9 °F 29.9 in ESE 1.6 mph 3.6 mph 59 % 0 in
11:18 89.4 °F 72.7 °F 29.9 in SE 0.9 mph 3.6 mph 58 % 0 in
11:23 89.8 °F 72.5 °F 29.9 in SW 1.2 mph 4.3 mph 57 % 0 in
11:28 89.8 °F 72 °F 29.9 in SSW 1.4 mph 4.3 mph 56 % 0 in
11:33 90.3 °F 72.5 °F 29.9 in ESE 1.2 mph 4 mph 56 % 0 in
11:38 90.5 °F 70.5 °F 29.9 in ESE 1.9 mph 4 mph 52 % 0 in
11:43 90.7 °F 71.8 °F 29.9 in SE 2.2 mph 4.9 mph 54 % 0 in
11:48 90.9 °F 72 °F 29.9 in SSE 2.1 mph 4.9 mph 54 % 0 in
11:53 91.2 °F 71.8 °F 29.9 in SE 2.4 mph 4.9 mph 53 % 0 in
11:58 91.6 °F 70.9 °F 29.9 in SE 2.9 mph 4.9 mph 51 % 0 in
12:03 91.8 °F 71.6 °F 29.9 in SSE 2.9 mph 4 mph 52 % 0 in
12:08 91.9 °F 71.2 °F 29.9 in SW 2.9 mph 4 mph 51 % 0 in
12:13 92.1 °F 70.2 °F 29.9 in SSW 2.3 mph 4 mph 49 % 0 in
12:18 92.5 °F 70.5 °F 29.9 in SSE 1.3 mph 4.5 mph 49 % 0 in
12:20 92.5 °F 69.3 °F 29.9 in ESE 1.2 mph 4.5 mph 47 % 0 in
12:25 92.8 °F 70.9 °F 29.9 in ESE 2.1 mph 4.9 mph 49 % 0 in
12:30 93.2 °F 71.2 °F 29.9 in SE 1.9 mph 5.6 mph 49 % 0 in
12:35 93.6 °F 71.4 °F 29.9 in SSE 1.7 mph 5.6 mph 49 % 0 in
12:40 93.9 °F 72 °F 29.9 in South 2.1 mph 4.7 mph 49 % 0 in
12:45 94.3 °F 71.1 °F 29.9 in SE 2.5 mph 6 mph 47 % 0 in
12:50 94.5 °F 70.5 °F 29.9 in ESE 2.6 mph 6 mph 46 % 0 in
12:55 94.8 °F 72.1 °F 29.9 in SE 3.2 mph 5.8 mph 48 % 0 in
13:00 94.8 °F 71.4 °F 29.9 in SE 3.7 mph 5.8 mph 47 % 0 in
13:05 95 °F 71.6 °F 29.9 in SE 2.7 mph 5.6 mph 47 % 0 in
13:10 95 °F 71.6 °F 29.9 in SSE 2.7 mph 6.3 mph 47 % 0 in
13:15 95.2 °F 71.1 °F 29.9 in SSE 2.4 mph 6.3 mph 46 % 0 in
13:20 95.4 °F 72 °F 29.9 in SE 2 mph 4.9 mph 47 % 0 in
13:25 95.4 °F 72 °F 29.9 in SE 2.4 mph 5.8 mph 47 % 0 in
13:30 95.4 °F 70.7 °F 29.9 in ESE 2.5 mph 5.8 mph 45 % 0 in
13:35 95.5 °F 70.9 °F 29.9 in East 3.2 mph 5.8 mph 45 % 0 in
13:40 95.5 °F 70.9 °F 29.9 in ESE 3.1 mph 5.8 mph 45 % 0 in
13:45 95.5 °F 70.2 °F 29.9 in ESE 2.5 mph 5.6 mph 44 % 0 in
13:50 95.7 °F 70.3 °F 29.9 in ESE 2 mph 5.6 mph 44 % 0 in
13:55 95.7 °F 71.1 °F 29.9 in ESE 1.7 mph 5.4 mph 45 % 0 in
14:00 96.3 °F 72.1 °F 29.9 in SSE 2.5 mph 5.8 mph 46 % 0 in
14:05 96.6 °F 71.8 °F 29.9 in South 3 mph 5.8 mph 45 % 0 in
14:10 96.6 °F 71.1 °F 29.9 in SW 2.8 mph 4.3 mph 44 % 0 in
14:15 96.6 °F 70.5 °F 29.9 in SW 1.8 mph 4 mph 43 % 0 in
14:20 97 °F 70.9 °F 29.9 in South 1.7 mph 3.6 mph 43 % 0 in
14:21 97 °F 70.9 °F 29.9 in South 1.6 mph 3.6 mph 43 % 0 in
14:26 97.2 °F 70.2 °F 29.9 in South 2.2 mph 3.8 mph 42 % 0 in
14:31 97.3 °F 70.3 °F 29.9 in South 2.4 mph 4.9 mph 42 % 0 in
14:36 97.5 °F 70.5 °F 29.9 in South 2.4 mph 4.9 mph 42 % 0 in
14:41 97.7 °F 68.5 °F 29.9 in South 2.2 mph 4.9 mph 39 % 0 in
14:46 97.7 °F 69.3 °F 29.9 in SE 2 mph 3.8 mph 40 % 0 in
14:51 97.7 °F 69.3 °F 29.9 in ESE 1.8 mph 4 mph 40 % 0 in
14:56 97.9 °F 68.7 °F 29.9 in SSE 1.7 mph 4 mph 39 % 0 in
15:01 98.2 °F 69.1 °F 29.9 in SSW 1.8 mph 4 mph 39 % 0 in
15:06 98.4 °F 69.3 °F 29.9 in SSW 2 mph 3.4 mph 39 % 0 in
15:11 98.4 °F 69.3 °F 29.9 in SSW 2 mph 3.6 mph 39 % 0 in
15:16 98.4 °F 70 °F 29.9 in South 2.2 mph 4.7 mph 40 % 0 in
15:21 98.4 °F 70 °F 29.9 in SSE 2.2 mph 4.7 mph 40 % 0 in
15:26 98.6 °F 69.4 °F 29.9 in SSE 2 mph 4 mph 39 % 0 in
15:31 98.8 °F 69.4 °F 29.9 in SSE 2 mph 4.3 mph 39 % 0 in
15:36 99 °F 68.9 °F 29.9 in South 2.5 mph 4.3 mph 38 % 0 in
15:41 99 °F 69.6 °F 29.9 in South 2.5 mph 5.4 mph 39 % 0 in
15:46 98.8 °F 68.7 °F 29.9 in SE 2.9 mph 5.6 mph 38 % 0 in
15:51 99 °F 68.9 °F 29.9 in SE 3.3 mph 5.6 mph 38 % 0 in
15:56 99 °F 68.9 °F 29.9 in SE 3.1 mph 4.3 mph 38 % 0 in
16:01 99.1 °F 69.1 °F 29.9 in SE 2.9 mph 4.3 mph 38 % 0 in
16:06 99.1 °F 69.1 °F 29.9 in SSE 2.4 mph 4.9 mph 38 % 0 in
16:11 99.3 °F 69.3 °F 29.9 in South 2.2 mph 4.9 mph 38 % 0 in
16:16 99.3 °F 68.5 °F 29.9 in South 1.8 mph 3.6 mph 37 % 0 in
16:21 99.3 °F 69.3 °F 29.9 in South 1.6 mph 4.7 mph 38 % 0 in
16:26 99.3 °F 68.5 °F 29.9 in SSE 2.2 mph 4.7 mph 37 % 0 in
16:31 99.3 °F 68.5 °F 29.9 in SE 2.6 mph 4.3 mph 37 % 0 in
16:36 99.3 °F 68.5 °F 29.9 in SSE 2.8 mph 4.9 mph 37 % 0 in
16:41 99.3 °F 68.5 °F 29.9 in South 2.2 mph 4.9 mph 37 % 0 in
16:46 99.3 °F 68.5 °F 29.9 in South 1.5 mph 4.9 mph 37 % 0 in
16:51 99.3 °F 68.5 °F 29.9 in South 1.7 mph 4 mph 37 % 0 in
16:56 99.3 °F 68.5 °F 29.9 in SSW 1.7 mph 4 mph 37 % 0 in
17:01 99.1 °F 68.4 °F 29.9 in South 1.5 mph 3.4 mph 37 % 0 in
17:06 99.1 °F 68.4 °F 29.9 in South 1.4 mph 3.4 mph 37 % 0 in
17:11 99.3 °F 68.5 °F 29.9 in South 1.5 mph 3.4 mph 37 % 0 in
17:16 99.1 °F 67.5 °F 29.9 in SSE 1.5 mph 3.4 mph 36 % 0 in
17:21 99.1 °F 68.4 °F 29.9 in SSE 0.8 mph 2.9 mph 37 % 0 in
17:26 99.1 °F 68.4 °F 29.9 in South 0.9 mph 2.9 mph 37 % 0 in
17:31 98.6 °F 67.8 °F 29.9 in South 1.1 mph 2.2 mph 37 % 0 in
17:36 98.1 °F 68.9 °F 29.9 in SSE 1.1 mph 2.2 mph 39 % 0 in
17:41 97.7 °F 68.5 °F 29.9 in SSE 0.3 mph 2.2 mph 39 % 0 in
17:47 97.3 °F 69.1 °F 29.9 in South 0.5 mph 2.2 mph 40 % 0 in
17:52 96.1 °F 68.5 °F 29.9 in NNW 0.6 mph 2.7 mph 41 % 0 in
17:57 95.5 °F 68.2 °F 29.9 in NNW 0.8 mph 2.7 mph 41 % 0 in
18:02 95 °F 68.4 °F 29.9 in NNW 0.8 mph 2.5 mph 42 % 0 in
18:07 94.5 °F 68.5 °F 29.8 in NNW 0.7 mph 2.5 mph 43 % 0 in
18:12 93.7 °F 69.3 °F 29.8 in NW 0.5 mph 2.2 mph 45 % 0 in
18:17 93 °F 69.8 °F 29.8 in NW 0.1 mph 1.6 mph 47 % 0 in
18:22 92.3 °F 69.3 °F 29.8 in Calm     47 % 0 in
18:27 91.6 °F 69.6 °F 29.8 in NNW 0.1 mph 1.6 mph 49 % 0 in
18:32 91 °F 70.3 °F 29.8 in NNW 0.1 mph 1.6 mph 51 % 0 in
18:37 90.5 °F 70 °F 29.8 in Calm   0.9 mph 51 % 0 in
18:42 90 °F 71.1 °F 29.8 in Calm   0.9 mph 54 % 0 in
18:47 89.6 °F 71.2 °F 29.8 in Calm     55 % 0 in
18:52 89.1 °F 71.2 °F 29.8 in Calm   1.6 mph 56 % 0 in
18:57 88.7 °F 71.1 °F 29.8 in North 0.2 mph 2.9 mph 56 % 0 in
19:02 88.2 °F 70.5 °F 29.8 in NNW 0.5 mph 2.9 mph 56 % 0 in
19:07 87.8 °F 71.2 °F 29.8 in NW 0.8 mph 2.9 mph 58 % 0 in
19:12 87.4 °F 70.3 °F 29.8 in NW 1.5 mph 3.4 mph 57 % 0 in
19:17 87.1 °F 71.1 °F 29.8 in NW 1.8 mph 3.6 mph 59 % 0 in
19:22 86.7 °F 71.2 °F 29.8 in NNW 1.1 mph 3.6 mph 60 % 0 in
19:27 86.2 °F 71.2 °F 29.8 in NNW 0.9 mph 2.9 mph 61 % 0 in
19:32 85.8 °F 71.8 °F 29.8 in NNW 1 mph 3.8 mph 63 % 0 in
19:37 85.3 °F 71.2 °F 29.8 in NW 1.4 mph 3.8 mph 63 % 0 in
19:42 85.1 °F 71.4 °F 29.8 in NW 1.3 mph 3.1 mph 64 % 0 in
19:47 84.4 °F 71.2 °F 29.8 in NW 0.8 mph 3.1 mph 65 % 0 in
19:52 83.8 °F 71.8 °F 29.8 in NNW 0.6 mph 2.7 mph 67 % 0 in
19:57 83.7 °F 71.4 °F 29.8 in NNW 0.3 mph 2 mph 67 % 0 in
20:02 83.1 °F 71.4 °F 29.8 in Calm   0.9 mph 68 % 0 in
20:07 82.6 °F 71.4 °F 29.8 in NNW 0.1 mph 1.3 mph 69 % 0 in
20:12 82.2 °F 71.1 °F 29.8 in NNW 0.1 mph 1.3 mph 69 % 0 in
20:15 82 °F 70.9 °F 29.8 in NNW 0.1 mph 0.9 mph 69 % 0 in
20:20 81.7 °F 71.4 °F 29.9 in Calm     71 % 0 in
20:25 81.1 °F 70.9 °F 29.9 in NE 0.1 mph 1.1 mph 71 % 0 in
20:30 80.8 °F 70.5 °F 29.9 in NE 0.1 mph 1.1 mph 71 % 0 in
20:31 80.8 °F 71.2 °F 29.9 in NE 0.1 mph 1.1 mph 73 % 0 in
20:36 80.4 °F 71.4 °F 29.8 in Calm     74 % 0 in
20:41 80.1 °F 71.4 °F 29.8 in Calm   1.3 mph 75 % 0 in
20:46 79.9 °F 70.9 °F 29.8 in Calm   1.3 mph 74 % 0 in
20:51 79.5 °F 70.5 °F 29.9 in Calm     74 % 0 in
20:54 79.3 °F 70.7 °F 29.9 in Calm     75 % 0 in
20:59 79 °F 70.3 °F 29.9 in Calm     75 % 0 in
21:04 78.8 °F 70.5 °F 29.9 in Calm     76 % 0 in
21:09 78.4 °F 70.5 °F 29.9 in Calm     77 % 0 in
21:14 78.3 °F 70.2 °F 29.9 in Calm     76 % 0 in
21:19 78.3 °F 70.2 °F 29.9 in Calm     76 % 0 in
21:24 77.9 °F 70.2 °F 29.9 in Calm     77 % 0 in
21:29 77.7 °F 70 °F 29.9 in Calm     77 % 0 in
21:34 77.5 °F 70.2 °F 29.9 in Calm     78 % 0 in
21:39 77.4 °F 69.6 °F 29.9 in Calm     77 % 0 in
21:44 77.2 °F 70.2 °F 29.9 in Calm     79 % 0 in
21:49 77 °F 70 °F 29.9 in Calm     79 % 0 in
21:54 76.8 °F 69.8 °F 29.9 in Calm     79 % 0 in
21:59 76.6 °F 69.6 °F 29.9 in Calm     79 % 0 in
22:04 76.6 °F 70 °F 29.9 in Calm     80 % 0 in
22:09 76.5 °F 69.8 °F 29.9 in Calm     80 % 0 in
22:14 76.3 °F 69.6 °F 29.9 in Calm     80 % 0 in
22:19 76.3 °F 69.6 °F 29.9 in Calm     80 % 0 in
22:24 76.1 °F 69.8 °F 29.9 in Calm     81 % 0 in
22:29 75.9 °F 69.6 °F 29.9 in Calm     81 % 0 in
22:34 75.9 °F 69.6 °F 29.9 in Calm     81 % 0 in
22:39 75.7 °F 69.1 °F 29.9 in Calm     80 % 0 in
22:44 75.7 °F 69.4 °F 29.9 in Calm     81 % 0 in
22:49 75.6 °F 69.3 °F 29.9 in Calm     81 % 0 in
22:54 75.4 °F 69.4 °F 29.9 in Calm     82 % 0 in
22:59 75.2 °F 69.3 °F 29.9 in Calm     82 % 0 in
23:04 75.2 °F 69.3 °F 29.9 in Calm     82 % 0 in
23:09 75 °F 69.1 °F 29.9 in Calm     82 % 0 in
23:14 75 °F 69.4 °F 29.9 in Calm     83 % 0 in
23:19 74.8 °F 69.3 °F 29.9 in Calm     83 % 0 in
23:24 74.7 °F 69.3 °F 29.9 in Calm     83 % 0 in
23:29 74.5 °F 69.1 °F 29.9 in Calm     83 % 0 in
23:34 74.3 °F 69.1 °F 29.9 in Calm   3.4 mph 84 % 0 in
23:39 74.3 °F 69.1 °F 29.9 in SE 0.7 mph 4.3 mph 84 % 0 in
23:44 74.5 °F 69.6 °F 29.9 in SE 1.6 mph 5.8 mph 85 % 0 in
23:49 76.6 °F 69.6 °F 29.9 in East 3.4 mph 9.8 mph 79 % 0 in
23:54 79 °F 69.6 °F 29.9 in ENE 6.1 mph 17.4 mph 73 % 0 in
23:59 80.1 °F 69.8 °F 29.9 in ENE 5.9 mph 17.4 mph 71 % 0 in
Vremenska postaja Senovo
Podatki zbrani iz Weather Underground - 3 mb

Script developed by  Jim McMurry - jmcmurry@mwt.net Adapted for the template by  Wim van der Kuil - Leuven-Template.eu

Vremenski podatki so objavljeni na:

WeatherCloud

Weather Underground

AWEKAS

HAMweather, WeatherForYou, PWS Weather

MapView

Geostik

Slovenia weather network

Oprema, ki se uporablja:

Vremenski program
Cumulus

Cumulus